Location: Unspecified
(47.7670°N, 8.8522°E)
Time: 15:52:34
(UTC+01:00)

ISS - Pass Details

Date: 29 January 2019
Orbit: 403 x 411 km, 51.6° (Epoch: 23 February)

Event Time Altitude Azimuth Distance (km) Brightness Sun altitude
Rises 18:12:42 0° 255° (WSW) 2,327 2.5 -9.1°
Reaches altitude 10° 18:14:48 10° 258° (WSW) 1,470 0.7 -9.4°
Maximum altitude 18:18:04 65° 341° (NNW) 456 -3.6 -9.9°
Enters shadow 18:20:40 15° 62° (ENE) 1,197 -2.1 -10.3°
